LZ3DJ-10 Weather Reports


time (UTC)temp
C
wind
direction
speed
KPH
gust
KPH
rain 1hr
cm
rain 24hr
cm
rain mn
cm
humidity
%
barometer
mb
20260902161505 28 0.0 0.0 0.00 0.00 0.00 39 1011.8
20260902160008 29 0.0 0.0 0.00 0.00 0.00 38 1011.6
20260902154505 30 331 0.0 1.6 0.00 0.00 0.00 37 1011.4
20260902153006 30 0.0 0.0 0.00 0.00 0.00 36 1011.1
20260902151505 31 340 0.0 1.6 0.00 0.00 0.00 35 1011.0
20260902150005 31 0.0 0.0 0.00 0.00 0.00 35 1010.8
20260902144505 32 326 0.0 3.2 0.00 0.00 0.00 34 1010.6
20260902143005 34 0.0 0.0 0.00 0.00 0.00 33 1010.3
20260902141505 35 128 0.0 1.6 0.00 0.00 0.00 32 1010.2
20260902140005 35 341 0.0 1.6 0.00 0.00 0.00 33 1010.3
20260902134506 35 0.0 0.0 0.00 0.00 0.00 28 1010.2
20260902133005 34 321 1.6 3.2 0.00 0.00 0.00 30 1010.6
20260902131506 33 322 0.0 1.6 0.00 0.00 0.00 30 1010.9
20260902130006 37 333 0.0 3.2 0.00 0.00 0.00 27 1010.2
20260902124505 36 341 0.0 1.6 0.00 0.00 0.00 29 1010.4
20260902123006 35 322 0.0 3.2 0.00 0.00 0.00 31 1011.0
20260902121505 34 312 1.6 3.2 0.00 0.00 0.00 32 1011.3
20260902120006 35 326 1.6 8.0 0.00 0.00 0.00 33 1011.6
20260902114505 34 326 0.0 3.2 0.00 0.00 0.00 34 1012.0
20260902113006 34 326 0.0 3.2 0.00 0.00 0.00 35 1012.1
20260902111505 33 325 1.6 8.0 0.00 0.00 0.00 38 1012.5
20260902110007 32 326 1.6 4.8 0.00 0.00 0.00 39 1013.0
20260902104506 31 320 1.6 3.2 0.00 0.00 0.00 39 1013.2
20260902103005 32 328 1.6 4.8 0.00 0.00 0.00 40 1013.3
20260902101506 31 326 0.0 3.2 0.00 0.00 0.00 41 1013.6
20260902100006 30 330 0.0 1.6 0.00 0.00 0.00 42 1013.9
20260902094506 31 131 1.6 4.8 0.00 0.00 0.00 42 1014.0
20260902093005 30 55 0.0 1.6 0.00 0.00 0.00 44 1014.2
20260902091505 29 327 0.0 1.6 0.00 0.00 0.00 45 1014.5
20260902090005 28 328 0.0 3.2 0.00 0.00 0.00 46 1014.7
20260902084506 27 124 1.6 3.2 0.00 0.00 0.00 47 1015.0
20260902083006 25 327 1.6 4.8 0.00 0.00 0.00 51 1015.4
20260902081505 25 0.0 0.0 0.00 0.00 0.00 50 1015.6
20260902080006 25 318 1.6 3.2 0.00 0.00 0.00 50 1015.9
20260902074505 25 326 1.6 8.0 0.00 0.00 0.00 51 1015.9
20260902073006 24 326 1.6 8.0 0.00 0.00 0.00 51 1016.0
20260902071506 23 330 1.6 4.8 0.00 0.00 0.00 52 1016.1
20260902070007 23 326 0.0 3.2 0.00 0.00 0.00 53 1016.2
20260902064506 23 328 1.6 3.2 0.00 0.00 0.00 53 1016.2
20260902063005 22 329 1.6 8.0 0.00 0.00 0.00 53 1016.1
20260902061505 22 319 0.0 1.6 0.00 0.00 0.00 55 1016.2
20260902060005 22 325 0.0 1.6 0.00 0.00 0.00 55 1016.3
20260902054505 22 326 1.6 4.8 0.00 0.00 0.00 55 1016.4
20260902053005 22 0.0 0.0 0.00 0.00 0.00 56 1016.4
20260902051505 21 315 0.0 3.2 0.00 0.00 0.00 57 1016.4
20260902050008 21 326 0.0 3.2 0.00 0.00 0.00 58 1016.4
20260902044505 21 325 1.6 3.2 0.00 0.00 0.00 58 1016.3
20260902043005 21 333 0.0 3.2 0.00 0.00 0.00 59 1016.2
20260902041505 21 0.0 0.0 0.00 0.00 0.00 61 1016.2
20260902040006 21 329 0.0 1.6 0.00 0.00 0.00 61 1016.2
20260902034505 21 326 0.0 4.8 0.00 0.00 0.00 60 1016.1
20260902033005 21 331 0.0 3.2 0.00 0.00 0.00 60 1016.1
20260902031505 22 328 0.0 3.2 0.00 0.00 0.00 60 1016.0
20260902030006 22 328 0.0 3.2 0.00 0.00 0.00 60 1015.9
20260902024506 22 293 0.0 1.6 0.00 0.00 0.00 61 1015.9
20260902023005 22 0.0 0.0 0.00 0.00 0.00 62 1015.9
20260902021505 22 0.0 0.0 0.00 0.00 0.00 61 1015.8
20260902020005 22 333 1.6 3.2 0.00 0.00 0.00 60 1015.9
20260902014505 22 330 1.6 4.8 0.00 0.00 0.00 61 1016.0
20260902013005 22 329 1.6 9.7 0.00 0.00 0.00 57 1015.8
20260902011505 22 324 0.0 3.2 0.00 0.00 0.00 57 1015.8
20260902010005 22 331 3.2 8.0 0.00 0.00 0.00 57 1016.0
20260902004506 22 325 1.6 4.8 0.00 0.00 0.00 60 1015.9
20260902003005 22 337 3.2 8.0 0.00 0.00 0.00 61 1015.7
20260902001505 22 321 1.6 8.0 0.00 0.00 0.00 62 1015.5
20260902000005 23 328 1.6 8.0 0.00 0.00 0.00 61 1015.4
20260901234506 23 329 1.6 4.8 0.00 0.00 0.00 60 1015.4
20260901233005 23 0.0 0.0 0.00 0.00 0.00 60 1015.3
20260901231506 23 333 0.0 1.6 0.00 0.00 0.00 60 1015.4
20260901230005 23 328 0.0 3.2 0.00 0.00 0.00 60 1015.5
20260901224506 22 334 0.0 1.6 0.00 0.00 0.00 62 1015.6
20260901223006 22 0.0 0.0 0.00 0.00 0.00 64 1015.5
20260901221506 22 0.0 0.0 0.00 0.00 0.00 64 1015.4
20260901220005 22 0.0 0.0 0.00 0.00 0.00 63 1015.4
20260901214505 22 0.0 0.0 0.00 0.00 0.00 63 1015.2
20260901213005 23 0.0 0.0 0.00 0.00 0.00 62 1015.0
20260901211506 23 0.0 0.0 0.00 0.00 0.00 59 1014.8
20260901210005 23 147 0.0 1.6 0.00 0.00 0.00 59 1014.8
20260901204506 23 0.0 0.0 0.00 0.00 0.00 60 1014.7
20260901203005 24 0.0 0.0 0.00 0.00 0.00 56 1014.5
20260901201505 24 145 0.0 3.2 0.00 0.00 0.00 59 1014.6
20260901200005 24 0.0 0.0 0.00 0.00 0.00 59 1014.5
20260901194506 25 0.0 0.0 0.00 0.00 0.00 58 1014.4
20260901193005 25 0.0 0.0 0.00 0.00 0.00 54 1014.4
20260901191506 26 0.0 0.0 0.00 0.00 0.00 54 1014.4
20260901190005 26 0.0 0.0 0.00 0.00 0.00 53 1014.3
20260901184505 26 0.0 0.0 0.00 0.00 0.00 52 1014.0
20260901183005 26 0.0 0.0 0.00 0.00 0.00 51 1013.8
20260901181505 27 0.0 0.0 0.00 0.00 0.00 49 1013.6
20260901180006 27 0.0 0.0 0.00 0.00 0.00 49 1013.3
20260901174505 27 0.0 0.0 0.00 0.00 0.00 50 1013.0
20260901173005 27 0.0 0.0 0.00 0.00 0.00 48 1012.6
20260901171505 28 0.0 0.0 0.00 0.00 0.00 48 1012.3
20260901170006 28 0.0 0.0 0.00 0.00 0.00 47 1012.1
20260901164506 29 0.0 0.0 0.00 0.00 0.00 46 1011.8
20260901163005 30 0.0 0.0 0.00 0.00 0.00 45 1011.5